Location: Stanford
(52.2833°N, 2.4333°W)
Time: 00:36:05
(UTC+00:00)

Cosmos 1939 Rocket - Pass Details

Date: 22 January 2021
Orbit: 531 x 585 km, 97.4° (Epoch: 28 February)

Event Time Altitude Azimuth Distance (km) Brightness Sun altitude
Rises 17:37:17 0° 155° (SSE) 2,793 6.4 -8.8°
Reaches altitude 10° 17:39:28 10° 151° (SSE) 1,893 5.5 -9.1°
Maximum altitude 17:43:30 60° 72° (ENE) 664 2.9 -9.7°
Drops below altitude 10° 17:47:32 10° 353° (N) 1,882 5.4 -10.3°
Sets 17:49:41 0° 350° (N) 2,776 6.3 -10.6°
